"Pseudo-MPEC" for C1E9A15

Created 2026 Apr 15 10:35:03 UT using Find_Orb

Click here for an explanation of pseudo-MPECs

 
 Astrometry: 
     C1E9A15*1C2026 03 26.26495212 18 53.125+07 51 09.90   ~3Q7K 22.76GVNEOCPV00
     C1E9A15 1C2026 03 26.27053812 18 52.697+07 51 11.84   ~3Q7K 21.88GVNEOCPV00
     C1E9A15 1C2026 03 26.27612112 18 52.268+07 51 13.64   ~3Q7K 22.71GVNEOCPV00
     C1E9A15 1C2026 03 26.28170812 18 51.815+07 51 15.52   ~3Q7K 22.09GVNEOCPV00
     C1E9A15 1C2026 03 26.39033312 18 43.520+07 51 51.66   ~3QAK 22.48GVNEOCPV06
     C1E9A15 1C2026 03 26.40106312 18 42.728+07 51 55.08   ~3QAK 23.09GVNEOCPV06
     C1E9A15 1C2026 03 26.41179012 18 41.900+07 51 59.40   ~3QAK       VNEOCPV06

Station data:
(V00) Kitt Peak-Bok  (N31.963125 W111.600190)  US/Arizona. Measurers T.
   Beuden, V. F. Carvajal, D. Fay, J. B. Fazekas, D. C. Fuls, A. R. Gibbs, A.
   D. Grauer, H. Gröller, J. K. Hogan, R. A. Kowalski, S. M. Larson, G. J.
   Leonard, D. Rankin, R. L. Seaman, F. C. Shelly, K. W. Wierzchoś. 2.25-m
   reflector + 4x4K mosaic CCD.
(V06) Catalina Sky Survey-Kuiper  (N32.416871 W110.732550)  US/Arizona.
   Measurers T. Beuden, V. F. Carvajal, D. Fay, J. B. Fazekas, D. C. Fuls, A.
   R. Gibbs, A. D. Grauer, H. Gröller, J. K. Hogan, R. A. Kowalski, S. M.
   Larson, G. J. Leonard, D. Rankin, R. L. Seaman, F. C. Shelly, K. W.
   Wierzchoś. 1.55-m reflector + CCD.

Orbital elements:  C1E9A15
   Perihelion 2025 Jul 13.100009 +/- 332 TT =  2:24:00.7 (JD 2460869.600009)
Epoch 2026 Mar 26.0 TT = JDT 2461125.5   Earth MOID: 0.1180   Ve: 0.0472
M  70.389616225 +/- 80              (J2000 ecliptic)             AutoNEOCP
n   0.275066896 +/- 0.187           Peri.  353.127467 +/- 60
a   2.341588076 +/- 1.06            Node    45.390606 +/- 46
e   0.67133798 +/- 0.263            Incl.    8.610598 +/- 58
P   3.58316                H 18.90  G  0.15   U 11.7  SR
q 0.769591065 +/- 1.08    Q 3.913585088 +/- 30.6
From 7 observations 2026 Mar. 26 (3.5 hr); mean residual 0".19
Residuals in arcseconds: 
260326 V00  .12+  .01+    260326 V00  .31-  .01-    260326 V06  .02+  .44+    
260326 V00  .11+  .07+    260326 V06  .19-  .17-    
260326 V00  .07+  .01-    260326 V06  .19+  .32-    

Ephemerides (geocentric):
Date (UTC) HH   RA             Dec           delta  r     elong  mag " sig PA
---- --------  ------------   ------------  ------ ------ -----  --- --------
2026 04 15 11  11 56 47.855   +09 09 42.13  2.0149 2.9239 149.5 23.4  28d  95
2026 04 15 12  11 56 45.629   +09 09 47.30  2.0154 2.9241 149.4 23.4  28d  95
2026 04 15 13  11 56 43.405   +09 09 52.45  2.0159 2.9244 149.4 23.4  28d  95
2026 04 15 14  11 56 41.184   +09 09 57.57  2.0165 2.9246 149.3 23.4  28d  95
2026 04 15 15  11 56 38.965   +09 10 02.68  2.0170 2.9248 149.3 23.4  28d  95
2026 04 15 16  11 56 36.749   +09 10 07.77  2.0175 2.9251 149.2 23.4  28d  95
2026 04 15 17  11 56 34.535   +09 10 12.84  2.0180 2.9253 149.2 23.4  28d  95
2026 04 15 18  11 56 32.324   +09 10 17.89  2.0186 2.9255 149.2 23.4  28d  95
2026 04 15 19  11 56 30.115   +09 10 22.93  2.0191 2.9258 149.1 23.4  29d  95
2026 04 15 20  11 56 27.909   +09 10 27.94  2.0196 2.9260 149.1 23.4  29d  95
2026 04 15 21  11 56 25.705   +09 10 32.93  2.0201 2.9262 149.0 23.4  29d  95
2026 04 15 22  11 56 23.504   +09 10 37.91  2.0207 2.9265 149.0 23.4  29d  95
2026 04 15 23  11 56 21.306   +09 10 42.86  2.0212 2.9267 148.9 23.4  29d  95
2026 04 16 00  11 56 19.109   +09 10 47.80  2.0217 2.9269 148.9 23.4  29d  95
2026 04 16 01  11 56 16.916   +09 10 52.72  2.0222 2.9272 148.8 23.4  29d  95
2026 04 16 02  11 56 14.725   +09 10 57.62  2.0228 2.9274 148.8 23.4  29d  95
2026 04 16 03  11 56 12.536   +09 11 02.49  2.0233 2.9276 148.7 23.4  29d  95
2026 04 16 04  11 56 10.350   +09 11 07.35  2.0238 2.9279 148.7 23.4  29d  95
2026 04 16 05  11 56 08.167   +09 11 12.20  2.0243 2.9281 148.6 23.4  29d  95
2026 04 16 06  11 56 05.986   +09 11 17.02  2.0249 2.9283 148.6 23.4  29d  95
2026 04 16 07  11 56 03.807   +09 11 21.82  2.0254 2.9286 148.5 23.4  29d  95
2026 04 16 08  11 56 01.631   +09 11 26.60  2.0259 2.9288 148.5 23.4  29d  95
2026 04 16 09  11 55 59.458   +09 11 31.37  2.0265 2.9290 148.4 23.4  29d  95
2026 04 16 10  11 55 57.287   +09 11 36.11  2.0270 2.9293 148.4 23.4  29d  95
2026 04 16 11  11 55 55.118   +09 11 40.84  2.0275 2.9295 148.3 23.4  29d  95
2026 04 16 12  11 55 52.953   +09 11 45.55  2.0281 2.9297 148.3 23.4  29d  95
2026 04 16 13  11 55 50.789   +09 11 50.24  2.0286 2.9300 148.3 23.4  29d  95
2026 04 16 14  11 55 48.629   +09 11 54.91  2.0291 2.9302 148.2 23.4  29d  95
2026 04 16 15  11 55 46.470   +09 11 59.56  2.0297 2.9304 148.2 23.4  29d  95
2026 04 16 16  11 55 44.315   +09 12 04.19  2.0302 2.9307 148.1 23.4  29d  95
2026 04 16 17  11 55 42.162   +09 12 08.80  2.0307 2.9309 148.1 23.4  29d  95
2026 04 16 18  11 55 40.011   +09 12 13.39  2.0313 2.9311 148.0 23.4  29d  95
2026 04 16 19  11 55 37.863   +09 12 17.97  2.0318 2.9314 148.0 23.4  29d  95
2026 04 16 20  11 55 35.718   +09 12 22.52  2.0323 2.9316 147.9 23.4  29d  95
2026 04 16 21  11 55 33.575   +09 12 27.06  2.0329 2.9318 147.9 23.4  29d  95
2026 04 16 22  11 55 31.434   +09 12 31.58  2.0334 2.9321 147.8 23.4  29d  95
2026 04 16 23  11 55 29.296   +09 12 36.07  2.0339 2.9323 147.8 23.4  29d  95
2026 04 17 00  11 55 27.161   +09 12 40.55  2.0345 2.9325 147.7 23.4  29d  95
2026 04 17 01  11 55 25.028   +09 12 45.01  2.0350 2.9328 147.7 23.5  29d  95
2026 04 17 02  11 55 22.898   +09 12 49.45  2.0355 2.9330 147.6 23.5  29d  95
2026 04 17 03  11 55 20.771   +09 12 53.88  2.0361 2.9332 147.6 23.5  29d  95
2026 04 17 04  11 55 18.646   +09 12 58.28  2.0366 2.9335 147.5 23.5  29d  95
2026 04 17 05  11 55 16.523   +09 13 02.66  2.0372 2.9337 147.5 23.5  29d  95
2026 04 17 06  11 55 14.403   +09 13 07.03  2.0377 2.9339 147.5 23.5  29d  95
2026 04 17 07  11 55 12.286   +09 13 11.37  2.0382 2.9342 147.4 23.5  29d  95
2026 04 17 08  11 55 10.171   +09 13 15.70  2.0388 2.9344 147.4 23.5  29d  95
2026 04 17 09  11 55 08.059   +09 13 20.01  2.0393 2.9346 147.3 23.5  29d  95
2026 04 17 10  11 55 05.949   +09 13 24.30  2.0399 2.9349 147.3 23.5  29d  95